COSMOS 732

Satellite information

Favourite Embed

Satellite Type and Status

PAYLOADIN ORBIT

Key statistics

Satellite COSMOS 732 at a glance.

Uptime

18468

Days in orbit

Revolutions

≈ 12.6

Per day

Orbit

LEO

Low Earth Orbit

Inclination

74.0

Latest

Satellite identification and parameters

Extended collection of information and parameters for COSMOS 732.

Object identification

Identified? True

Debris? False

Object name: COSMOS 732

International designator: 1975-045A

Object number (NORAD): 7820

Object ID (CCSDS): 7820

Country: COMMONWEALTH OF INDEPENDENT STATES (CIS)

Current information (Y/N): Y

RCS size: MEDIUM

Orbital parameters

Period: 114.584 minutes

Inclination: 74.0168 deg

SMA: 7814.645 km

Apoapsis: 1469.284 km

Periapsis: 1403.737 km

RAAN: 237.2142 deg

Eccentricy: 0.00419384

Argument of periapsis: 99.5245 deg

Mean anomaly: 326.2348 deg

Mean motion: 12.5672097 rev/day

Mean motion (dot): 0.00000004 rev/day2

B* drag term: 0.00011787975 1/REarth

Two-line elements (TLE)

Creation date: Dec. 19, 2025, 2:08 a.m.

Reference frame: TEME

Reference center: EARTH

Epoch: Dec. 18, 2025, 7:26 p.m. UTC

TLE line 0: 0 COSMOS 732

TLE line 1: 1 07820U 75045A 25352.80973735 .00000004 00000-0 11788-3 0 9999

TLE line 2: 2 07820 74.0168 237.2142 0041938 99.5245 326.2348 12.56720970319612

Live tracking on map

Real-time ground track for satellite COSMOS 732.

In-orbit conjunctions

There are no conjunctions computed for COSMOS 732, at the moment. Check back to stay up to date, as we update our databases every day.

Go to all conjunctions

Associated space launch

Military communications satellites

COSMOS 732 was lifted into orbit during the mission ‘Kosmos-3M | Strela-1M 89-96’, on board a Kosmos-3M space rocket.

The launch took place on May 28, 1975, 12:25 a.m. from 132/1 (132L).

For more information about the launch, click the button.

Launch to space Kosmos-3M | Strela-1M 89-96
Kosmos-3M | Strela-1M 89-96

Agency: N/A

Status: Launch Successful

Launch date: May 28, 1975, 12:25 a.m. UTC

Rocket: Kosmos-3M

Launch pad: 132/1 (132L)

Location: Plesetsk Cosmodrome, Russian Federation

...

Latest news about this satellite

There are no fresh news available about this satellite. Check back as we update our databases every day.


Newsletter sign-up

Weekly statistics, charts and insights to help you stay on top of the space industry.